KGYH

Details ICAO KGYH
Name DONALDSON CENTER
Region United States
Timezone America/New_York (UTC-4.0)
Plans Departing 13
Arriving 9
Stats Elevation 955 ft / 291 m (AMSL)
Location 34.758323° -82.376411°
Runways 1
Magnetic Variation 6.691° W
Sunrise 2018-05-27 10:20:44 UTC / 2018-05-27 06:20:44 Local
Sunset 2018-05-28 00:35:31 UTC / 2018-05-27 20:35:31 Local
Advertisement - Login to hide

Runways

ID Width Length Bearing (true) Bearing (mag) Surface Threshold Offset Overrun Length
05 150 ft / 46 m 8,007 ft / 2,441 m 39.85° 46.54° Concrete 0 ft / 0 m 0 ft / 0 m
23 150 ft / 46 m 8,007 ft / 2,441 m 219.86° 226.55° Concrete 0 ft / 0 m 0 ft / 0 m

Approach Navaids

Runway Type Ident Frequency Range Bearing (true) Bearing (mag) Slope Elevation
05 Localiser IGYH 108.30 MHz 18 nm / 33 km 39.86° 46.55° - 955 ft / 291 m (AMSL)
05 Glidescope IGYH 108.30 MHz 10 nm / 19 km 39.85° 46.54° 3.00° 954 ft / 291 m (AMSL)

Map

Weather


0- 5 10 15 20 25 30 35+ Temperature / ° C

Clouds and Precipitation
Forecast for 2018-05-27 18:00 UTC. Updated an hour ago

Ground ~20,000 ft ~40,000 ft Winds

METAR

KGYH 271747Z 13007KT 10SM SCT024 BKN040 28/21 A3000

TAF

Not found

Frequencies

Recorded 127.32 MHz AWOS 3
Clearance 121.40 MHz CLNC DEL
Ground 121.40 MHz GND
Approach 118.80 MHz GREER APP/DEP
Unicom 133.32 MHz CTAF/UNICOM
Clearance 125.95 MHz CLNC DEL
Tower 133.32 MHz TWR
Warning: Do not use this data for real-world aviation or navigation. No guarantee of current accuracy is given.